Weather History for White Rock, BC

Change the Weather History Date:

Friday, March 29, 2013

  Actual Average Record
Temperature  
Mean Temperature 49 °F -  
Max Temperature 56 °F - - ()
Min Temperature 42 °F - - ()
Degree Days  
Heating Degree Days 16    
Moisture  
Dew Point 44 °F    
Average Humidity 82    
Maximum Humidity 90    
Minimum Humidity 65    
Precipitation  
Precipitation 0.00 in - - ()
Sea Level Pressure  
Sea Level Pressure 30.26 in    
Wind  
Wind Speed 1 mph ()    
Max Wind Speed 4 mph    
Max Gust Speed -    
T = Trace of Precipitation, MM = Missing Value Source: Averaged Metar Reports

Daily Weather History Graph

Daily Weather History Graph

Search for Another Location

Airport:

Trip Planner

Search our weather history database for the weather conditions in past years. The results will help you decide how hot, cold, wet, or windy it might be!

Date:

Astronomy

Mar. 29, 2013 Rise Set
Actual Time 6:54 AM PDT 7:38 PM PDT
Civil Twilight 6:22 AM PDT 8:10 PM PDT
Nautical Twilight 5:44 AM PDT 8:48 PM PDT
Astronomical Twilight 5:04 AM PDT 9:28 PM PDT
Moon 11:03 PM PDT (3/29) 7:51 AM PDT (3/29)
Length of Visible Light 13h 48m
Length of Day
12h 44m
Waning Gibbous, 93% of the Moon is Illuminated
Mar 29
Waning Gibbous
Apr 2
Last Quarter
Apr 10
New
Apr 18
First Quarter
Apr 25
Full

Hourly Weather History & Observations

Time (PDT) Temp. Dew Point Humidity Pressure Visibility Wind Dir Wind Speed Gust Speed Precip Events Conditions
12:00 AM 45.0 °F 40.8 °F 85% 30.17 in - Calm Calm - N/A   Unknown
1:00 AM 44.1 °F 40.5 °F 87% 30.19 in - NE 1.2 mph - N/A   Unknown
2:00 AM 43.7 °F 40.1 °F 87% 30.19 in - NNE 1.2 mph - N/A   Unknown
3:00 AM 45.0 °F 41.9 °F 89% 30.20 in - NNE 2.3 mph - N/A   Unknown
4:00 AM 42.8 °F 39.4 °F 88% 30.21 in - NNE 2.3 mph - N/A   Unknown
5:00 AM 44 °F 40 °F 83% 30.23 in - NE 1.2 mph - -  
5:00 AM 43.9 °F 40.5 °F 88% 30.23 in - NE 1.2 mph - N/A   Unknown
6:00 AM 45.9 °F 41.9 °F 86% 30.24 in - ENE 1.2 mph - N/A   Unknown
7:00 AM 44.6 °F 41.0 °F 87% 30.26 in - ESE 1.2 mph - N/A   Unknown
8:00 AM 46.4 °F 43.0 °F 88% 30.27 in - NNW 1.2 mph - N/A   Unknown
9:00 AM 48.9 °F 44.1 °F 83% 30.28 in - Calm Calm - N/A   Unknown
10:00 AM 51.3 °F 44.8 °F 78% 30.29 in - SSW 2.3 mph - N/A   Unknown
11:00 AM 53 °F 45 °F 65% 30.30 in - WSW 2.3 mph - -  
11:00 AM 53.1 °F 44.6 °F 73% 30.30 in - WSW 2.3 mph - N/A   Unknown
12:00 PM 52.0 °F 46.0 °F 80% 30.30 in - SW 3.5 mph - N/A   Unknown
1:00 PM 53.1 °F 47.1 °F 80% 30.30 in - WSW 3.5 mph - N/A   Unknown
2:00 PM 54.0 °F 47.5 °F 79% 30.30 in - WSW 3.5 mph - N/A   Unknown
3:00 PM 54.9 °F 46.2 °F 73% 30.28 in - WSW 3.5 mph - N/A   Unknown
4:00 PM 54.5 °F 46.8 °F 75% 30.27 in - SW 3.5 mph - N/A   Unknown
5:00 PM 56 °F 48 °F 66% 30.27 in - SSW 3.5 mph - -  
5:00 PM 55.6 °F 47.8 °F 75% 30.27 in - SSW 3.5 mph - N/A   Unknown
6:00 PM 54.3 °F 47.8 °F 79% 30.26 in - South 2.3 mph - N/A   Unknown
7:00 PM 54.0 °F 47.5 °F 79% 30.25 in - SSW 2.3 mph - N/A   Unknown
8:00 PM 51.1 °F 46.6 °F 85% 30.26 in - Calm Calm - N/A   Unknown
9:00 PM 49.1 °F 45.5 °F 87% 30.27 in - Calm Calm - N/A   Unknown
10:00 PM 48.0 °F 44.8 °F 89% 30.28 in - Calm Calm - N/A   Unknown
11:00 PM 49 °F 46 °F 85% 30.29 in - WNW 1.2 mph - -  
11:00 PM 48.6 °F 45.9 °F 90% 30.29 in - WNW 1.2 mph - N/A   Unknown